#timestamp,LO_Frequency,Hit,StdDev 
1680397215.3,286047014.9,P
1680397235.1,286047008.1,N
1680397236.0,286047008.1,N
1680397255.8,286047005.0,N
1680397275.7,286047001.7,N
1680397295.5,286046999.1,N
1680397315.3,286046997.1,N
1680397335.2,286047005.9,N
1680397355.0,286047000.0,N
1680397355.9,286047000.0,N
1680397375.8,286047000.0,N
1680397395.6,286047002.2,N
1680397415.4,286047004.7,N
1680397435.3,286046999.8,N
1680397455.1,286047001.8,N
1680397475.8,286047004.0,N
1680397495.7,286047000.4,N
1680397515.5,286047002.0,N
1680397535.4,286047000.7,N
1680397555.2,286047000.0,N
1680397575.0,286047005.0,N
1680397575.9,286047005.0,N
1680397595.8,286047007.0,N
1680397615.6,286047005.3,N
1680397635.5,286046999.7,N
1680397655.3,286046999.6,N
1680397675.1,286046997.3,N
1680397695.9,286046998.1,N
1680397715.7,286047001.4,N
1680397735.6,286047000.6,N
1680397755.4,286046997.6,N
1680397775.2,286047001.8,N
1680397795.1,286047000.3,N
1680397796.0,286047000.3,N
1680397815.8,286047005.9,N
1680397835.6,286046999.3,N
1680397855.5,286046990.6,Y
1680397875.3,286046993.8,P
1680397895.2,286047002.7,N
1680397915.9,286047000.7,N
1680397935.7,286046998.2,N
1680397955.6,286047000.3,N
1680397975.4,286046998.4,N
1680397995.2,286046998.6,N
1680398015.1,286047006.5,N
1680398016.0,286047006.5,N
1680398035.8,286047009.8,N
1680398055.7,286047007.2,N
1680398075.5,286047005.3,N
1680398095.3,286047005.1,N
1680398115.2,286047000.1,N
1680398135.0,286047005.5,N
1680398135.9,286047005.5,N
1680398155.7,286047007.4,N
1680398175.6,286047002.8,N
1680398195.4,286046998.5,N
1680398215.3,286046996.9,N
1680398235.1,286046997.5,N
1680398236.0,286046997.5,N
1680398255.8,286047003.7,N
1680398275.7,286047004.3,N
1680398295.5,286047003.6,N
1680398315.3,286047000.7,N
1680398335.2,286046995.1,N
1680398355.0,286046999.8,N
1680398355.9,286046999.8,N
1680398375.8,286047005.1,N
1680398395.6,286047005.5,N
1680398415.4,286046998.8,N
1680398435.3,286047002.2,N
1680398455.1,286047002.3,N
1680398475.8,286047005.0,N
1680398495.7,286046998.5,N
1680398515.5,286047002.4,N
1680398535.4,286047009.8,N
1680398555.2,286047005.6,N
1680398575.0,286047002.3,N
1680398575.9,286047002.3,N
1680398595.8,286046995.8,N
1680398615.6,286046993.7,N
1680398635.4,286046996.0,N
1680398655.3,286046991.8,N
1680398675.1,286046992.2,N
1680398695.9,286046993.2,N
1680398715.7,286046992.9,N
1680398735.5,286046992.9,N
1680398755.4,286046989.9,N
1680398775.2,286046987.0,N
1680398795.0,286046992.5,N
1680398795.9,286046992.5,N
1680398815.8,286046989.8,N
1680398835.6,286046990.2,N
1680398855.5,286046994.2,N
1680398875.3,286046993.9,N
1680398895.1,286046991.9,N
1680398915.9,286046992.2,N
1680398935.7,286046991.7,N
1680398955.5,286046990.9,N
1680398975.4,286046990.7,N
1680398995.2,286046985.4,N
1680399015.1,286046989.2,N
1680399016.0,286046989.2,N
1680399035.8,286046992.1,N
1680399055.6,286046991.1,N
1680399075.5,286046995.6,N
1680399095.3,286046994.2,N
1680399115.2,286046993.9,N
1680399135.0,286046993.0,N
1680399135.9,286046993.0,N
1680399155.7,286046986.1,Y
1680399175.6,286046996.3,P
1680399195.4,286046994.4,N
1680399215.3,286046992.0,P
1680399235.1,286046995.6,N
1680399255.8,286046995.2,N
1680399275.7,286047004.1,N
1680399295.5,286046999.6,N
1680399315.3,286046990.3,N
1680399335.2,286046994.0,N
1680399355.0,286046995.1,N
1680399355.9,286046995.1,N
1680399375.8,286046993.1,N
1680399395.6,286046993.7,N
1680399415.4,286046994.1,N
1680399435.3,286046993.8,N
1680399455.1,286046999.5,N
1680399475.8,286047002.3,N
1680399495.7,286046997.9,N
1680399515.5,286046994.5,N
1680399535.4,286046996.2,N
1680399555.2,286046993.7,N
1680399575.0,286046998.7,N
1680399575.9,286046998.7,N
1680399595.8,286046999.8,N
1680399615.6,286047005.1,N
1680399635.4,286047018.2,Y
1680399655.3,286047015.2,P
1680399675.1,286047011.2,N
1680399695.9,286047016.9,N
1680399715.7,286047002.9,N
1680399735.5,286047000.5,N
1680399755.4,286046999.2,N
1680399775.2,286047004.0,N
1680399795.0,286047004.0,N
1680399796.0,286047004.0,N
1680399815.8,286047008.9,N
1680399835.6,286047004.5,N
1680399855.5,286047009.2,N
1680399875.3,286047002.9,N
1680399895.1,286047003.4,N
1680399915.9,286046996.5,N
1680399935.7,286046999.7,N
1680399955.6,286047000.6,N
1680399975.4,286046997.6,N
1680399995.2,286046990.4,N
1680400015.1,286046992.7,N
1680400016.0,286046992.7,N
1680400035.8,286046992.5,N
1680400055.6,286046992.2,N
1680400075.5,286046991.0,N
1680400095.3,286046991.7,N
1680400115.2,286047002.5,N
1680400135.9,286047001.9,N
1680400155.7,286046999.6,N
1680400175.6,286047000.6,N
1680400195.4,286047012.2,N
1680400215.2,286047009.0,N
1680400235.1,286047012.1,N
1680400236.0,286047012.1,N
1680400255.8,286047006.6,N
1680400275.7,286046995.7,N
1680400295.5,286046993.6,N
1680400315.3,286046997.2,N
1680400335.2,286047003.6,N
1680400355.9,286047006.8,N
1680400375.7,286047008.8,N
1680400395.6,286047014.0,N
1680400415.4,286047013.8,N
1680400435.3,286047008.0,N
1680400455.1,286047010.4,N
1680400456.0,286047010.4,N
1680400475.8,286047013.6,N
1680400495.7,286047006.6,N
1680400515.5,286047003.4,N
1680400535.4,286046996.5,N
1680400555.2,286046993.5,N
1680400575.0,286046992.6,N
1680400575.9,286046992.6,N
1680400595.8,286046994.3,N
1680400615.6,286046996.6,N
1680400635.4,286047002.2,N
1680400655.3,286047008.3,N
1680400675.1,286047015.1,N
1680400695.9,286047017.1,N
1680400715.7,286047018.3,N
1680400735.5,286047015.8,N
1680400755.4,286047014.7,N
1680400775.2,286047013.8,N
1680400795.0,286047011.6,N
1680400795.9,286047011.6,N
